{"data":{"norad_id":69553,"epoch":"2026-09-20T00:15:33.323040Z","epoch_age_seconds":63951,"freshness":"FRESH","line1":"1 69553U 26135H   26263.01080235  .00011132  00000+0  34651-3 0  9992","line2":"2 69553  97.2838 290.6796 0002711 299.7274  60.3699 15.33453331 14927","mean_motion":15.33453331,"eccentricity":0.0002711,"inclination_deg":97.2838,"raan_deg":290.6796,"arg_perigee_deg":299.7274,"mean_anomaly_deg":60.3699,"bstar":0.00034651,"rev_number":1492,"period_min":93.905694479854,"perigee_km":463.66307242019,"apogee_km":467.37370237123,"semimajor_km":6843.6553873957,"source":"CELESTRAK","updated_at":"2026-09-20T09:00:44.243020Z"}}